[[{"header":{"parameterUnit":"m.s-1","parameterCategory":1,"la1":30.2991,"la2":30.254,"lo1":-89.0895,"lo2":-89.0444,"dy":0.0017,"dx":0.0017,"nx":28,"ny":28,"refTime":"2025-07-13T03:00:00:Z","depth":0,"parameterNumber":2,"parameterNumberName":"U-component_of_WINDS"},"data":[0,0,0,0,0,0,0,0,0,0,0,0,0,0,0,0,0,0,0,0,0,0,0,0,0,0,0,0,0,0,0,0,0,0,0,0,0,0,0,0,0,0,0,0,0,0,0,0,0,0,0,0,0,0,0,0,0,0,2.3028,2.3029,0,2.3142,2.3144,2.3145,2.3152,2.3151,2.315,2.3149,2.3264,2.3269,2.3273,0,0,0,0,0,0,0,0,0,0,0,0,0,2.2813,2.2817,2.3028,2.3029,2.3031,2.3142,2.3144,2.3145,2.3153,2.3151,2.3149,2.3148,2.3263,2.3268,2.3273,0,0,0,0,0,0,0,0,0,0,0,0,0,2.2915,2.2818,2.3028,2.3048,2.3051,2.3142,2.3144,2.3146,2.3153,2.3151,2.3149,2.3147,2.3261,2.3268,2.3274,2.3352,0,0,2.3294,2.3296,0,0,0,0,0,0,0,0,2.2909,2.2922,2.3043,2.3047,2.305,2.3131,2.311,2.3215,2.3153,2.3114,2.3148,2.3146,2.3222,2.3231,2.3257,2.3358,2.3363,2.3294,2.3298,2.3301,2.3303,0,0,0,0,0,0,0,2.2902,2.2918,2.3073,2.3045,2.3049,2.305,2.3063,2.313,2.3177,2.3117,2.3118,2.3132,2.3223,2.3251,2.326,2.3364,2.3294,2.33,2.3304,2.3306,2.3532,2.3534,0,0,0,0,0,0,2.2891,2.2912,2.3069,2.3076,2.2973,2.3056,2.3069,2.3107,2.3176,2.3185,2.3133,2.3132,2.3241,2.3252,2.3264,2.3358,2.3301,2.3307,2.3311,2.353,2.3533,2.3535,0,0,0,0,0,0,2.2886,2.2905,2.3065,2.2994,2.3015,2.3061,2.3103,2.311,2.3138,2.3189,2.3197,2.3153,2.3239,2.3255,2.333,2.3362,2.331,2.3316,2.3528,2.3531,2.3534,2.3548,0,0,0,0,0,0,2.288,2.2903,2.2934,2.2995,2.3019,2.313,2.3106,2.3114,2.3149,2.3148,2.3209,2.3217,2.3239,2.332,2.3336,2.337,2.3321,2.3525,2.3529,2.3533,2.3545,2.3551,2.3557,0,0,0,0,0,2.2873,2.2934,2.2936,2.2955,2.3058,2.3132,2.3145,2.3169,2.3152,2.3182,2.3215,2.3215,2.3356,2.3328,2.3346,2.3382,2.3523,2.3528,2.3533,2.3542,2.355,2.3556,0,0,0,0,0,0,2.2876,2.2942,2.2945,2.3028,2.3074,2.3133,2.3172,2.3177,2.3228,2.3225,2.3253,2.3266,2.334,2.3369,2.3336,2.346,2.3438,2.3446,2.3438,2.3446,2.3452,2.3443,2.3326,0,0,0,0,0,2.2886,2.2941,2.2996,2.3064,2.3087,2.3125,2.3158,2.3173,2.3221,2.3241,2.3278,2.3325,2.3379,2.3415,2.3468,2.3549,2.3561,2.3583,2.3589,2.3594,2.36,2.3643,2.3652,2.3551,2.3551,2.3551,0,0,2.2908,2.2951,2.2984,2.3065,2.3103,2.3157,2.3142,2.3201,2.3241,2.325,2.3322,2.3351,2.3405,2.3483,2.3519,2.3509,2.3631,2.36,2.3603,2.3607,2.3649,2.3658,2.3667,2.3554,2.3554,2.3553,0,0,2.2975,2.3015,2.3074,2.3112,2.3168,2.3193,2.3208,2.3265,2.3285,2.3358,2.3365,2.3413,2.3507,2.3545,2.3576,2.3656,2.3657,2.3672,2.3703,2.3744,2.3752,2.3759,2.3785,2.3795,2.3679,2.3679,2.3679,0,2.2995,2.3078,2.3104,2.3162,2.3197,2.3207,2.3267,2.3302,2.3373,2.3396,2.3384,2.3501,2.3538,2.3623,2.3642,2.3668,2.3684,2.3665,2.3749,2.3756,2.3763,2.3789,2.3799,2.368,2.368,2.368,2.368,0,2.3099,2.3156,2.3197,2.3265,2.3305,2.3363,2.3396,2.3433,2.3444,2.347,2.3544,2.3589,2.365,2.3672,2.3683,2.3758,2.375,2.3743,2.3721,2.3774,2.3798,2.3808,2.3682,2.3682,2.3681,2.3681,0,0,2.3171,2.3251,2.3265,2.3295,2.3358,2.3402,2.3461,2.3521,2.3551,2.3599,2.3648,2.3726,2.372,2.3755,2.3771,2.3808,2.3865,2.3797,2.3798,2.3806,2.3948,2.3951,2.3962,2.3868,2.387,2.3871,2.3942,0,2.3243,2.3347,2.3371,2.3461,2.3513,2.3523,2.3574,2.3617,2.3643,2.369,2.3718,2.3773,2.3762,2.3783,2.3819,2.385,2.3894,2.3846,2.3911,2.3913,2.3895,2.3975,2.3978,2.4043,2.3952,2.3954,2.3955,0,2.3341,2.3391,2.3485,2.3539,2.3562,2.3607,2.3663,2.3709,2.3757,2.3773,2.3812,2.3824,2.3884,2.386,2.3941,2.3908,2.3936,2.3956,2.3959,2.3964,2.3936,2.398,2.4065,2.4074,2.3971,2.3969,2.3968,0,2.3381,2.3472,2.354,2.3565,2.3631,2.3662,2.369,2.3737,2.3771,2.382,2.3841,2.3897,2.3926,2.3968,2.3994,2.3975,2.4073,2.4052,2.4086,2.4086,2.4105,2.4103,2.4194,2.4127,2.4127,2.4127,2.4126,0,2.3458,2.3514,2.3558,2.3599,2.3663,2.3689,2.3751,2.3779,2.3821,2.3867,2.388,2.3922,2.3955,2.4002,2.4023,2.4086,2.41,2.4113,2.4118,2.4111,2.4109,2.4128,2.4123,2.4129,2.4129,2.4128,2.4128,0,2.3512,2.3544,2.3618,2.3674,2.3689,2.3732,2.378,2.3819,2.3845,2.3903,2.3918,2.3959,2.4015,2.4045,2.4116,2.4129,2.4199,2.4202,2.4182,2.4184,2.4216,2.4211,2.432,2.4335,2.426,2.4261,2.4262,0,2.3558,2.3602,2.3662,2.3693,2.3722,2.3774,2.3808,2.3836,2.3871,2.3929,2.3961,2.4018,2.4064,2.4153,2.4188,2.4241,2.4244,2.4279,2.4252,2.4243,2.4242,2.4238,2.4242,2.4283,2.4283,2.4284,2.4284,0,2.3635,2.3649,2.3698,2.3752,2.3793,2.3837,2.3881,2.3906,2.3941,2.3979,2.4036,2.4072,2.4143,2.4199,2.4254,2.4283,2.4289,2.4293,2.4303,2.4296,2.4281,2.4287,2.4192,2.429,2.4289,2.4289,2.4289,2.4288,2.3685,2.3724,2.3771,2.3825,2.3861,2.3901,2.394,2.3971,2.4019,2.4079,2.4093,2.4152,2.4198,2.4274,2.4304,2.435,2.4343,2.4359,2.4363,2.4366,2.4365,2.4276,2.4361,2.4361,2.4361,2.4361,2.436,0,2.3761,2.3792,2.3841,2.3901,2.3943,2.3946,2.3994,2.4029,2.4081,2.4124,2.4169,2.4234,2.4287,2.4326,2.438,2.441,2.4414,2.4423,2.442,2.4426,2.437,2.4354,2.4418,2.4418,2.4418,2.4418,2.4418,2.4418,2.3805,2.3869,2.3888,2.3969,2.4,2.4058,2.4085,2.4122,2.4156,2.4227,2.4271,2.4297,2.4337,2.4394,2.4443,2.4453,2.4471,2.448,2.449,2.4436,2.443,2.4424,2.4409,2.4484,2.4484,2.4542,2.4542,2.4543]},{"header":{"parameterUnit":"m.s-1","parameterCategory":1,"la1":30.2991,"la2":30.254,"lo1":-89.0895,"lo2":-89.0444,"dy":0.0017,"dx":0.0017,"nx":28,"ny":28,"refTime":"2025-07-13T03:00:00:Z","depth":0,"parameterNumber":3,"parameterNumberName":"V-component_of_WINDS"},"data":[0,0,0,0,0,0,0,0,0,0,0,0,0,0,0,0,0,0,0,0,0,0,0,0,0,0,0,0,0,0,0,0,0,0,0,0,0,0,0,0,0,0,0,0,0,0,0,0,0,0,0,0,0,0,0,0,0,0,3.4186,3.4186,0,3.417,3.417,3.417,3.4094,3.4093,3.4091,3.4089,3.4074,3.4075,3.4076,0,0,0,0,0,0,0,0,0,0,0,0,0,3.4153,3.4154,3.4186,3.4186,3.4186,3.417,3.417,3.417,3.4095,3.4093,3.409,3.4088,3.4073,3.4075,3.4076,0,0,0,0,0,0,0,0,0,0,0,0,0,3.4156,3.4155,3.4187,3.4147,3.4143,3.417,3.417,3.417,3.4095,3.4093,3.409,3.4087,3.4073,3.4074,3.4076,3.4141,0,0,3.4082,3.4083,0,0,0,0,0,0,0,0,3.4155,3.4157,3.4153,3.415,3.4145,3.4132,3.4152,3.416,3.4096,3.4113,3.4089,3.4086,3.4095,3.4095,3.4098,3.414,3.4139,3.4082,3.4083,3.4084,3.4085,0,0,0,0,0,0,0,3.4155,3.4157,3.418,3.4153,3.4148,3.413,3.4127,3.4153,3.4119,3.4112,3.4106,3.4105,3.4093,3.4096,3.4097,3.4139,3.4082,3.4084,3.4085,3.4086,3.4232,3.4235,0,0,0,0,0,0,3.4161,3.4157,3.418,3.4179,3.4144,3.4133,3.413,3.4139,3.4119,3.4113,3.4107,3.4102,3.4094,3.4095,3.4096,3.4169,3.4084,3.4086,3.4087,3.423,3.4233,3.4236,0,0,0,0,0,0,3.416,3.4164,3.4181,3.4167,3.4168,3.4136,3.4147,3.414,3.4143,3.4116,3.4109,3.4117,3.4092,3.4093,3.413,3.4167,3.4087,3.4088,3.4226,3.4231,3.4234,3.4316,0,0,0,0,0,0,3.416,3.4164,3.4188,3.4168,3.4169,3.4215,3.4149,3.4141,3.4146,3.4139,3.4123,3.4118,3.409,3.4127,3.4132,3.4168,3.409,3.4223,3.4228,3.4233,3.431,3.4323,3.4334,0,0,0,0,0,3.4159,3.4212,3.419,3.4193,3.4198,3.4218,3.4218,3.4185,3.415,3.4174,3.4156,3.4119,3.4163,3.4132,3.4136,3.4174,3.422,3.4227,3.4233,3.4305,3.432,3.4333,0,0,0,0,0,0,3.4238,3.4209,3.4183,3.4232,3.4228,3.4205,3.4234,3.4202,3.4208,3.4201,3.4159,3.4157,3.4199,3.419,3.4156,3.4235,3.4185,3.4193,3.4239,3.4253,3.4265,3.4265,3.4091,0,0,0,0,0,3.4261,3.4279,3.4253,3.4298,3.4297,3.4267,3.4274,3.4248,3.4242,3.424,3.4225,3.4221,3.4234,3.4243,3.4254,3.4309,3.4304,3.4337,3.4349,3.4359,3.4365,3.4393,3.4407,3.4257,3.4256,3.4256,0,0,3.4309,3.4296,3.431,3.4314,3.4308,3.4327,3.4265,3.4289,3.4303,3.4244,3.4277,3.4266,3.4259,3.4304,3.4324,3.4298,3.4406,3.4367,3.4375,3.4376,3.4401,3.4415,3.4428,3.4261,3.426,3.4259,0,0,3.4406,3.4398,3.4434,3.4429,3.442,3.4399,3.4408,3.439,3.438,3.4412,3.4368,3.4384,3.4407,3.4404,3.4405,3.45,3.4466,3.4505,3.4566,3.4593,3.4605,3.4615,3.4648,3.4661,3.4512,3.4512,3.4512,0,3.4467,3.4494,3.4457,3.4483,3.4486,3.4433,3.4469,3.4466,3.4461,3.4464,3.4436,3.4463,3.4455,3.4499,3.4522,3.4525,3.4533,3.4506,3.4606,3.4616,3.4625,3.4656,3.4669,3.4516,3.4516,3.4515,3.4515,0,3.4569,3.4588,3.4619,3.4614,3.4621,3.4652,3.4619,3.4631,3.4605,3.4587,3.462,3.4608,3.4614,3.4623,3.4598,3.4663,3.4648,3.4614,3.4563,3.4645,3.4673,3.4685,3.4523,3.4522,3.452,3.4519,0,0,3.4715,3.4689,3.4701,3.4698,3.4684,3.4698,3.4727,3.4732,3.4742,3.4741,3.4763,3.4784,3.4752,3.4753,3.4728,3.4752,3.4827,3.4715,3.4714,3.4735,3.4897,3.4922,3.4936,3.4804,3.4807,3.4808,3.4897,0,3.4806,3.4853,3.482,3.4872,3.4889,3.4839,3.4864,3.4858,3.4842,3.4854,3.4837,3.4851,3.4809,3.4809,3.4831,3.4813,3.4859,3.4807,3.4825,3.4826,3.4827,3.4951,3.4977,3.5061,3.4908,3.491,3.4911,0,3.4919,3.4922,3.4975,3.4956,3.4962,3.4985,3.4987,3.5,3.4992,3.4979,3.498,3.4948,3.4975,3.4926,3.4962,3.4927,3.4933,3.4925,3.4928,3.4927,3.4873,3.4953,3.5088,3.51,3.4928,3.4927,3.4926,0,3.5019,3.5036,3.5069,3.5069,3.5048,3.5065,3.5058,3.5047,3.5052,3.5055,3.5057,3.5063,3.5066,3.5072,3.5042,3.5009,3.5081,3.503,3.5071,3.5072,3.5087,3.5087,3.5224,3.5093,3.5093,3.5093,3.5092,0,3.5124,3.5158,3.5114,3.5134,3.5171,3.5134,3.5171,3.5159,3.515,3.5167,3.5125,3.5142,3.5102,3.5116,3.5093,3.5126,3.5128,3.5117,3.5111,3.5121,3.5122,3.5123,3.5116,3.5096,3.5095,3.5095,3.5094,0,3.5241,3.5212,3.5246,3.5223,3.5219,3.5247,3.5228,3.5246,3.5227,3.525,3.5253,3.5223,3.5237,3.5208,3.5218,3.5202,3.5248,3.5233,3.5251,3.5245,3.5287,3.5283,3.5429,3.5446,3.5306,3.5307,3.5309,0,3.5309,3.5334,3.5314,3.5322,3.5316,3.5331,3.5335,3.5299,3.5306,3.5299,3.5318,3.5328,3.5334,3.5358,3.5337,3.5344,3.5328,3.5379,3.5329,3.5338,3.5328,3.5326,3.5328,3.5389,3.5391,3.5392,3.5393,0,3.5432,3.5417,3.5425,3.5428,3.5435,3.5436,3.5435,3.5444,3.5405,3.5415,3.5428,3.5433,3.5442,3.5452,3.5454,3.5447,3.5414,3.5409,3.5419,3.5428,3.5437,3.5432,3.5277,3.5406,3.5405,3.5404,3.5403,3.5402,3.5526,3.5545,3.5534,3.5544,3.5539,3.5538,3.5554,3.5537,3.5546,3.5551,3.5529,3.5547,3.5538,3.5537,3.5533,3.5547,3.5524,3.5538,3.5541,3.5545,3.5551,3.5436,3.5547,3.5547,3.5546,3.5546,3.5546,0,3.5646,3.5636,3.5646,3.5644,3.5653,3.562,3.5616,3.5626,3.5641,3.5635,3.5642,3.5656,3.5666,3.5646,3.5653,3.5667,3.5652,3.567,3.5668,3.5667,3.5572,3.5562,3.5682,3.5682,3.5682,3.5682,3.5682,3.5682,3.571,3.574,3.5724,3.5751,3.5741,3.5757,3.5758,3.5757,3.5752,3.5769,3.5777,3.5764,3.5753,3.5758,3.5765,3.5759,3.5763,3.5786,3.5775,3.5687,3.5673,3.5661,3.5651,3.5788,3.5788,3.5868,3.5869,3.587]}]]